Flag for U.S.A. Weather past 2 weeks in Tacoma, Washington, U.S.A.

Now
58 °F

Clear.


Feels Like: 58 °F
Forecast: 57 / 79 °F
Wind: 5 mph from Southwest

Location: Tacoma Narrows Airport

Current Time: May 29, 2015 at 2:18:42 AM

Latest Report: May 29, 2015 at 1:53 AM


Visibility: 10 mi

Pressure: 29.99 "Hg

Humidity: 84%

Dew point: 53 °F

Location of TacomaLocation

Historic Weather in Tacoma — Graph

°F

Tacoma temperature yesterday

Maximum temperature yesterday: 78 °F (at 2:53 PM)
Minimum temperature yesterday: 51 °F (at 6:53 AM)
Average temperature yesterday: 64 °F

Past Weeks' High & Low Weather Summary

 TemperatureHumidityPressure
High78 °F (May 21, 3:53 PM)100% (May 20, 7:53 AM)30.19 "Hg (May 20, 7:53 AM)
Low48 °F (May 15, 2:53 AM)43% (May 21, 3:53 PM)29.81 "Hg (May 21, 6:53 PM)
Average58 °F76%30.01 "Hg
* Reported May 14 12:53 AM — May 29 12:53 AM, Tacoma, Weather by CustomWeather, © 2015

Note: Actual official high and low records may vary slightly from our data, if they occured in-between our weather recording intervals... More about our weather records

Advertising

Tacoma weather history for previous 24 hours

 ConditionsComfort  
Time TempWeatherWind HumidityBarometerVisibility
12:53 AM
Fri, May 29
60 °FClear.No wind78%30.00 "Hg10 mi
11:53 PM
Thu, May 28
62 °FClear.No wind75%29.99 "Hg10 mi
10:53 PM66 °FClear.7 mph61%29.99 "Hg10 mi
9:53 PM67 °FSunny.5 mph59%30.00 "Hg10 mi
8:53 PM71 °FSunny.7 mph53%29.98 "Hg10 mi
7:53 PM74 °FSunny.6 mph50%29.98 "Hg10 mi
6:53 PM77 °FSunny.6 mph45%29.98 "Hg10 mi
5:53 PM78 °FSunny.6 mph46%29.98 "Hg10 mi
4:53 PM77 °FSunny.5 mph45%29.98 "Hg10 mi
3:53 PM78 °FSunny.8 mph45%30.00 "Hg10 mi
2:53 PM78 °FSunny.6 mph45%30.01 "Hg10 mi
1:53 PM75 °FSunny.5 mph50%30.03 "Hg10 mi
12:53 PM71 °FSunny.No wind55%30.05 "Hg10 mi
11:53 AM67 °FSunny.No wind61%30.07 "Hg10 mi
10:53 AM61 °FSunny.5 mph75%30.09 "Hg3 mi
9:53 AM57 °FLow clouds.No wind83%30.10 "Hg1 mi
8:53 AM52 °FFog.3 mph97%30.09 "Hg1 mi
7:53 AM52 °FFog.No wind97%30.09 "Hg0 mi
6:53 AM51 °FFog.No wind100%30.09 "Hg0 mi
5:53 AM52 °FFog.3 mph97%30.07 "Hg1 mi
4:53 AM52 °FClear.3 mph93%30.06 "Hg10 mi
3:53 AM53 °FClear.No wind89%30.06 "Hg10 mi
2:53 AM54 °FClear.3 mph86%30.06 "Hg10 mi
Weather by CustomWeather, © 2015

See weather overviewHow to use our weather pages